星链-4174 (STARLINK-4174 )

导读

STARLINK-4174是美国太空探索技术公司(SpaceX)星链星座中的一员,于2022年7月24日发射入轨,属于星链互联网卫星项目。星链系统旨在构建全球卫星互联网,为偏远地区、海洋等场景提供宽带服务,该卫星承担低轨星座组网任务,服务全球网络覆盖布局。

Basic Information
目录编号:
53276
目录名称:
STARLINK-4174
国际标识:
2022-086AL
轨道中心:
EARTH
卫星名称:
星链-4174
卫星全名:
星链-4174 (STARLINK-4174 )
卫星状态:
在轨 (已飞行1424 天)
发射日期:
2022-07-24 UTC
国别 :
美国 (US)
星等 :
--
Orbit Information
数据来源 国际轨道数据 AOE轨道数据
星历时间 2026-06-17T12:00:02+0800
9小时前
查看轨道信息
2026-06-12T18:00:00+0800
5天前
查看轨道信息
半长轴 6902.869km 6917.902km
偏心率 0.0001917 0.0001562
轨道倾角 53.159° 53.159°
近地点辐角 81.232° 80.434°
升交点赤经 97.397° 118.808°
平近点角 172.593° 246.301°
近地点 523.408km 538.684km
远地点 526.056km 540.846km
周期 95.127分钟 95.438分钟
每日圈数 15.137647 15.088331
Detailed Information
固有亮度:
5
最大亮度:
2.5
卫星平台:
Starlink v1.5
覆盖范围:
全球
运营商:
太空探索技术公司
运营商所在国:
美国
制造商(研发单位):
太空探索技术公司
制造商所在国:
美国
使用方式:
暂无
Satellite Introduction
星链(Starlink)计划是由太空探索技术公司(SpaceX)提出的一个巨型低轨卫星互联网星座项目,计划在2019年至2024年间在太空搭建由约1.2万颗卫星组成的“星链”网络,其中1584颗将部署在地球上空550千米处的近地轨道,并从2020年开始工作。该卫星仍在工作。
2D Orbit Map
3D Orbit Map
Orbit Altitude Analysis Chart
Orbit Inclination Analysis Chart
Orbit Comprehensive Analysis Chart
View Comprehensive Chart